Meteo Giornale » Osservazioni meteo Stati Uniti (USA) » Grand Rapids Gerald R Ford
ore: 06:53 - Osservazioni Meteo Grand Rapids Gerald R Ford
Lat. 42° 52' N Lon. 85° 31' W Alt. 242 metri s.l.m.
21 °C
Foschia
Temp. 24 Ore
21 °C
27 °C
Sud
7.4 Km/h
Dew point 20 °C
Umidità 94 %
Visibilità 6 Km
Il sole sorge alle ore 07:07
Il sole tramonta alle ore 20:17
| Data e Ora | Cielo e Fenomeni | T °C | DP °C | Um. % | Pres. hPa | Vis. km | Vento km/h | |
|---|---|---|---|---|---|---|---|---|
| Oggi h: 06:53 | Foschia | 21 | 20 | 94 | 1014 | 6 | S 7.4 | |
| Oggi h: 05:53 | Foschia | 21 | 20 | 94 | 1014 | 10 | N 5.5 | |
| Oggi h: 04:53 | Sereno | 23 | 22 | 94 | 1014 | 11 | O/SO 11.1 | |
| Oggi h: 03:53 | Sereno | 23 | 22 | 94 | 1014 | 13 | O/SO 11.1 | |
| Oggi h: 02:53 | Sereno | 23 | 22 | 94 | 1013 | 11 | SO 11.1 | |
| Oggi h: 01:53 | Sereno | 22 | 21 | 94 | 1014 | 11 | SO 7.4 | |
| Oggi h: 00:53 | Sereno | 23 | 21 | 88 | 1014 | 13 | S/SO 9.3 | |
| Ieri h: 23:53 | Nuvoloso | 24 | 22 | 88 | 1014 | 13 | O/SO 9.3 | |
| Ieri h: 22:53 | Molto Nuvoloso | 23 | 21 | 88 | 1014 | 13 | S/SO 9.3 | |
| Ieri h: 21:53 | Molto Nuvoloso | 24 | 22 | 88 | 1014 | 14 | S/SO 11.1 | |
| Ieri h: 20:53 | Molto Nuvoloso | 24 | 21 | 83 | 1014 | 14 | O/SO 7.4 | |
| Ieri h: 19:53 | Molto Nuvoloso | 26 | 21 | 73 | 1013 | 10 | SO 14.8 | |
| Ieri h: 18:53 | Molto Nuvoloso | 26 | 21 | 73 | 1013 | 10 | S/SO 13 | |
| Ieri h: 17:53 | Molto Nuvoloso | 27 | 22 | 74 | 1013 | 10 | S/SO 16.7 | |
| Ieri h: 16:53 | Molto Nuvoloso | 24 | 21 | 83 | 1013 | 10 | S 13 | |
| Ieri h: 15:53 | Molto Nuvoloso | 23 | 21 | 88 | 1014 | 13 | S 11.1 | |
| Ieri h: 14:53 | Temporale | 24 | 20 | 78 | 1015 | 8 | O/NO 7.4 | |
| Ieri h: 14:20 | Temporale | 26 | 19 | 65 | 1014 | 10 | S 11.1 | |
| Ieri h: 13:53 | Molto Nuvoloso | 27 | 19 | 61 | 1015 | 10 | S/SO 25.9 | |
| Ieri h: 12:53 | Molto Nuvoloso | 26 | 20 | 69 | 1015 | 10 | S/SO 16.7 | |
| Ieri h: 11:53 | Pioggia | 23 | 20 | 83 | 1016 | 13 | S 11.1 | |
| Ieri h: 10:53 | Pioggia | 23 | 19 | 78 | 1017 | 6 | S 11.1 | |
| Ieri h: 09:53 | Coperto | 24 | 19 | 73 | 1016 | 10 | S 9.3 | |
| Ieri h: 08:53 | Molto Nuvoloso | 23 | 19 | 78 | 1016 | 14 | S/SO 14.8 | |



